ZJSY

Details ICAO ZJSY (SYX)
Name PHOENIX INTL
Region China
Timezone Asia/Chongqing (UTC+8.0)
Plans Departing 83
Arriving 110
Stats Elevation 92 ft / 28 m (AMSL)
Location 18.302892° 109.412268°
Runways 1
Magnetic Variation 1.605° W
Sunrise 2018-05-21 22:08:31 UTC / 2018-05-22 06:08:31 Local
Sunset 2018-05-22 11:12:19 UTC / 2018-05-22 19:12:19 Local
Advertisement - Login to hide

Runways

ID Width Length Bearing (true) Bearing (mag) Surface Threshold Offset Overrun Length
08 148 ft / 45 m 11,103 ft / 3,384 m 82.20° 83.80° Concrete 0 ft / 0 m 195 ft / 59 m
26 148 ft / 45 m 11,103 ft / 3,384 m 262.21° 263.81° Concrete 0 ft / 0 m 195 ft / 59 m

Approach Navaids

Runway Type Ident Frequency Range Bearing (true) Bearing (mag) Slope Elevation
08 Localiser IKK 109.50 MHz 18 nm / 33 km 82.13° 83.73° - 92 ft / 28 m (AMSL)
08 Glidescope IKK 109.50 MHz 10 nm / 19 km 82.20° 83.81° 3.00° 68 ft / 21 m (AMSL)
08 DME IKK 109.50 MHz 18 nm / 33 km - - - 68 ft / 21 m (AMSL)

Map

Weather


0- 5 10 15 20 25 30 35+ Temperature / ° C

Clouds and Precipitation
Forecast for 2018-05-22 00:00 UTC. Updated an hour ago

Ground ~20,000 ft ~40,000 ft Winds

METAR

ZJSY 220000Z 09003MPS 050V110 CAVOK 30/24 Q1010 NOSIG

TAF

Not found

Frequencies

Tower 118.15 MHz FENGHUANG TWR
Tower 130.00 MHz FENGHUANG TWR
Warning: Do not use this data for real-world aviation or navigation. No guarantee of current accuracy is given.